Tracking 30970 objects as of 3-Jul-2025
HD Live streaming from Space Station
objects crossing your sky now

DELTA 1 DEB

Track DELTA 1 DEB now!
10-day predictions


NORAD ID: 13539
Int'l Code: 1976-077EM
Perigee: 1,511.3 km
Apogee: 2,182.1 km
Inclination: 101.9 °
Period: 123.6 minutes
Semi major axis: 8217 km
RCS: 0.0923 m2 (small)
Launch date: July 29, 1976
Source: United States (US)
Launch site: AIR FORCE WESTERN TEST RANGE (AFWTR)

Note: This is SATELLITE DEBRIS
Your satellite tracking list
Your tracking list is empty




NASA's NSSDC Master Catalog

Two Line Element Set (TLE):
1 13539U 76077EM  25181.83809274  .00000197  00000-0  35574-2 0  9999
2 13539 101.8762 302.5077 0408148 271.9449 248.8328 11.65405337912825
Source of the keplerian elements: AFSPC